TimeCST,TemperatureF,Dew PointF,Humidity,Sea Level PressureIn,VisibilityMPH,Wind Direction,Wind SpeedMPH,Gust SpeedMPH,PrecipitationIn,Events,Conditions,WindDirDegrees,DateUTC
12:15 AM,-5.6,-12.5,72,30.20,10.0,West,4.6,-,N/A,,Mostly Cloudy,270,2014-01-22 06:15:00
12:35 AM,-2.4,-10.3,69,30.19,10.0,WSW,3.5,-,N/A,,Overcast,250,2014-01-22 06:35:00
12:55 AM,-3.1,-10.7,70,30.18,10.0,Calm,Calm,-,N/A,,Overcast,0,2014-01-22 06:55:00
1:15 AM,-2.7,-9.6,73,30.16,10.0,Calm,Calm,-,N/A,,Overcast,0,2014-01-22 07:15:00
1:35 AM,-1.3,-8.3,72,30.16,10.0,Calm,Calm,-,N/A,,Overcast,0,2014-01-22 07:35:00
1:55 AM,-0.0,-6.9,73,30.14,10.0,Calm,Calm,-,N/A,,Overcast,0,2014-01-22 07:55:00
2:15 AM,0.3,-6.0,75,30.13,10.0,SE,3.5,-,N/A,,Mostly Cloudy,140,2014-01-22 08:15:00
2:35 AM,0.5,-5.4,76,30.12,10.0,SSE,4.6,-,N/A,,Overcast,160,2014-01-22 08:35:00
2:55 AM,1.4,-6.0,71,30.11,10.0,SSE,5.8,-,N/A,,Overcast,160,2014-01-22 08:55:00
3:15 AM,1.2,-6.2,71,30.11,10.0,SSE,4.6,-,N/A,,Overcast,160,2014-01-22 09:15:00
3:55 AM,2.7,-4.7,71,30.09,10.0,SSE,5.8,-,N/A,,Overcast,160,2014-01-22 09:55:00
4:15 AM,3.2,-4.0,72,30.08,10.0,SSE,6.9,-,N/A,,Overcast,160,2014-01-22 10:15:00
4:35 AM,3.9,-3.8,70,30.07,10.0,South,6.9,-,N/A,,Overcast,170,2014-01-22 10:35:00
4:55 AM,4.5,-3.5,70,30.06,10.0,South,5.8,-,N/A,,Overcast,170,2014-01-22 10:55:00
5:15 AM,5.0,-3.6,68,30.05,10.0,South,6.9,-,N/A,,Overcast,170,2014-01-22 11:15:00
5:35 AM,5.2,-3.5,68,30.03,10.0,South,10.4,-,N/A,,Overcast,170,2014-01-22 11:35:00
5:55 AM,5.9,-2.7,68,30.03,10.0,South,8.1,-,N/A,,Overcast,170,2014-01-22 11:55:00
6:15 AM,5.9,-2.6,68,30.02,10.0,South,9.2,-,N/A,,Overcast,170,2014-01-22 12:15:00
6:35 AM,6.4,-2.2,68,30.03,10.0,South,8.1,-,N/A,,Overcast,180,2014-01-22 12:35:00
6:55 AM,6.8,-2.0,67,30.03,10.0,South,9.2,-,N/A,,Overcast,180,2014-01-22 12:55:00
7:15 AM,7.2,-1.5,68,30.03,10.0,South,8.1,-,N/A,,Overcast,180,2014-01-22 13:15:00
7:35 AM,7.5,-1.3,67,30.02,10.0,South,10.4,-,N/A,,Overcast,170,2014-01-22 13:35:00
7:55 AM,7.7,-0.9,68,30.01,10.0,South,10.4,-,N/A,,Overcast,170,2014-01-22 13:55:00
8:15 AM,8.1,-0.4,68,30.01,10.0,South,9.2,-,N/A,,Overcast,180,2014-01-22 14:15:00
8:35 AM,8.6,0.3,69,30.01,7.0,South,10.4,-,N/A,Snow,Light Snow,190,2014-01-22 14:35:00
8:55 AM,9.1,1.0,70,30.01,4.0,SSW,11.5,-,N/A,Snow,Light Snow,200,2014-01-22 14:55:00
9:15 AM,9.5,2.1,72,30.01,2.5,SSW,10.4,-,N/A,Snow,Light Snow,200,2014-01-22 15:15:00
9:35 AM,10.2,2.8,72,30.01,3.0,SSW,10.4,-,N/A,Snow,Light Snow,200,2014-01-22 15:35:00
9:55 AM,10.6,3.2,72,30.01,3.0,SSW,10.4,-,N/A,Snow,Light Snow,200,2014-01-22 15:55:00
10:15 AM,11.1,3.9,73,30.00,2.5,SSW,12.7,-,N/A,Snow,Light Snow,210,2014-01-22 16:15:00
10:35 AM,11.7,4.3,72,29.99,2.0,SSW,12.7,-,N/A,Snow,Light Snow,210,2014-01-22 16:35:00
10:55 AM,12.2,5.0,73,29.98,3.0,SSW,11.5,-,N/A,Snow,Light Snow,210,2014-01-22 16:55:00
11:15 AM,12.7,5.7,74,29.97,3.0,SW,9.2,-,N/A,Snow,Light Snow,220,2014-01-22 17:15:00
11:35 AM,13.5,6.3,73,29.95,4.0,SSW,11.5,-,N/A,Snow,Light Snow,210,2014-01-22 17:35:00
11:55 AM,14.4,6.6,71,29.93,5.0,SW,15.0,18.4,N/A,Snow,Light Snow,220,2014-01-22 17:55:00
12:15 PM,15.3,6.8,69,29.91,10.0,SW,13.8,-,N/A,,Overcast,230,2014-01-22 18:15:00
12:35 PM,15.8,6.8,68,29.93,10.0,WSW,11.5,-,N/A,,Mostly Cloudy,250,2014-01-22 18:35:00
12:55 PM,16.2,7.3,68,29.92,10.0,WSW,16.1,-,N/A,,Overcast,250,2014-01-22 18:55:00
1:15 PM,16.5,7.5,68,29.92,3.0,West,17.3,-,N/A,Snow,Light Snow,270,2014-01-22 19:15:00
1:35 PM,16.7,7.7,68,29.91,7.0,West,13.8,-,N/A,Snow,Light Snow,270,2014-01-22 19:35:00
1:55 PM,17.2,8.2,68,29.90,7.0,West,16.1,19.6,N/A,Snow,Light Snow,270,2014-01-22 19:55:00
2:15 PM,17.6,8.8,68,29.90,3.0,West,16.1,20.7,N/A,Snow,Light Snow,270,2014-01-22 20:15:00
2:35 PM,17.6,9.0,69,29.90,5.0,West,18.4,-,N/A,,Haze,270,2014-01-22 20:35:00
2:55 PM,17.4,8.8,69,29.91,2.5,West,16.1,-,N/A,,Haze,270,2014-01-22 20:55:00
3:15 PM,16.9,9.1,72,29.91,1.5,West,25.3,31.1,N/A,,Haze,280,2014-01-22 21:15:00
3:35 PM,15.6,8.2,73,29.93,0.8,West,28.8,36.8,N/A,,Haze,280,2014-01-22 21:35:00
3:55 PM,15.3,7.3,71,29.94,1.2,WNW,26.5,29.9,N/A,,Haze,290,2014-01-22 21:55:00
4:15 PM,14.7,7.7,74,29.96,1.8,West,23.0,28.8,N/A,Snow,Light Snow,280,2014-01-22 22:15:00
4:35 PM,14.0,6.8,73,29.96,1.0,West,31.1,-,N/A,,Haze,280,2014-01-22 22:35:00
4:55 PM,13.1,5.2,71,29.98,1.5,WNW,24.2,33.4,N/A,,Haze,290,2014-01-22 22:55:00
5:15 PM,12.6,4.8,71,30.00,4.0,WNW,21.9,-,N/A,,Haze,300,2014-01-22 23:15:00
5:35 PM,12.2,5.0,73,30.01,3.0,WNW,20.7,29.9,N/A,,Haze,290,2014-01-22 23:35:00
5:55 PM,11.8,5.9,77,30.02,4.0,WNW,18.4,-,N/A,Snow,Light Snow,290,2014-01-22 23:55:00
6:15 PM,10.6,4.1,75,30.04,10.0,WNW,16.1,-,N/A,,Scattered Clouds,290,2014-01-23 00:15:00
6:35 PM,10.0,1.4,68,30.04,10.0,NW,15.0,-,N/A,,Clear,310,2014-01-23 00:35:00
6:55 PM,9.9,-0.0,64,30.05,10.0,NW,16.1,-,N/A,,Clear,310,2014-01-23 00:55:00
7:15 PM,9.3,-1.3,62,30.06,10.0,NW,13.8,-,N/A,,Clear,310,2014-01-23 01:15:00
7:35 PM,7.7,-2.2,64,30.07,10.0,NW,10.4,-,N/A,,Clear,310,2014-01-23 01:35:00
7:55 PM,8.1,-1.7,65,30.08,10.0,NW,9.2,-,N/A,,Mostly Cloudy,320,2014-01-23 01:55:00
8:15 PM,8.6,-1.1,65,30.09,10.0,NW,10.4,-,N/A,,Mostly Cloudy,320,2014-01-23 02:15:00
8:35 PM,8.6,1.9,74,30.11,1.0,NNW,10.4,-,N/A,Snow,Light Snow,330,2014-01-23 02:35:00
8:55 PM,7.7,-0.2,70,30.11,3.0,NNW,8.1,-,N/A,,Haze,340,2014-01-23 02:55:00
9:15 PM,7.7,-2.2,64,30.12,7.0,NNW,9.2,-,N/A,,Overcast,340,2014-01-23 03:15:00
9:35 PM,7.2,-2.4,65,30.13,7.0,NNW,8.1,16.1,N/A,,Overcast,340,2014-01-23 03:35:00
9:55 PM,5.9,-4.2,63,30.14,5.0,NNW,10.4,19.6,N/A,,Haze,340,2014-01-23 03:55:00
10:15 PM,5.0,-5.8,61,30.16,5.0,NNW,11.5,17.3,N/A,,Haze,330,2014-01-23 04:15:00
10:35 PM,3.6,-8.3,58,30.17,7.0,NNW,12.7,18.4,N/A,,Clear,330,2014-01-23 04:35:00
10:55 PM,2.7,-9.0,58,30.18,7.0,NNW,15.0,20.7,N/A,,Clear,330,2014-01-23 04:55:00
11:15 PM,1.9,-10.1,57,30.20,10.0,NW,13.8,17.3,N/A,,Clear,320,2014-01-23 05:15:00
11:35 PM,1.4,-11.2,56,30.20,7.0,NW,15.0,21.9,N/A,,Clear,320,2014-01-23 05:35:00
11:55 PM,1.4,-11.2,56,30.22,10.0,NW,11.5,18.4,N/A,,Clear,320,2014-01-23 05:55:00